Погода в Леонберге

Германия     48°47′33″N   9°00′03″E
темп.,
°C
ветер,
м/с
пор.,
м/с
влажн.,
%
обл.,
%
осадки,
мм/ч
давл.,
гПа
погр.,
м
18 мая, ср
ср1823:00+15вюв12825 0.0 102115
02:00+13ююв228845 0.0 102121
05:00+12ю22898 0.0 102225
08:00+16ю23775 0.0 1023155
11:00+22вюв23577 0.0 1022703
14:00+24вюв334612 0.0 10221477
17:00+24вюв345013 0.0 10211353
20:00+20вюв38745 0.0 1020259
19 мая, чт
чт1923:00+15ююв22875 0.0 102235
02:00+13ююв2288100 0.0 102224
05:00+12ю2388100 0.0 102145
08:00+16ю2574100 0.0 1021163
11:00+23юз356054 0.0 1021552
14:00+26ссз2351100 0.0 10211235
17:00+25ссз3463100 0.0 1021504
20:00+21ю018195 0.8 102111
20 мая, пт
пт2023:00+18ююз228963 0.1 102217
02:00+16ю229321 1.4 102332
05:00+14ююз349368 0.0 102374
08:00+18ю268777 0.0 1023145
11:00+25юз34575 0.0 1022797
14:00+29юз364373 0.0 10202110
17:00+29ююз35425 0.0 10181967
20:00+24ю336852 0.0 101652
21 мая, сб
сб2123:00+20юз311745 0.0 1016207
02:00+21з71365100 0.0 1017855
05:00+15з61388100 0.6 1020624
08:00+13зсз5108364 0.7 1023737
11:00+14зсз4775100 0.0 1024741
14:00+18сз4652100 0.0 10231277
17:00+19зсз4650100 0.0 10221239
20:00+16зсз2571100 0.0 1022135
22 мая, вс
вс2223:00+12з22745 0.0 102324
02:00+10юз11845 0.0 102210
05:00+9ю11900 0.0 102210
08:00+13ююв12755 0.0 1021185
11:00+19вюв225388 0.0 1019742
14:00+23в2239100 0.0 1016994
17:00+23всв2243100 0.0 1014849
20:00+18св2571100 0.0 1014108